SCP
0 0 0 0 0 0 0 0 0 0 0 0 0 0 0 0 0 0 0 0 0 0 0 0 0 0 0 0 0 0 0 0 0 -0 0 0 0 0 0 0 0 0 0 0 0 0 0 0 0 0 0 0 0 0
0 0 0 0 0 0 0 0 0 0 0 -0 -0 -0 -0 0 0 0 0 0 0 0 0 0 0 0 0 0 0 0 0 0 0 -0 0 0 0 0 0 0 0 0 0 0 0 -0 0 0 0 0 0 0 0 -0
0 0 0 0 0 0 0 0 0 0 0 0 -0 -0 -0 0 0 0 0 0 0 0 0 0 0 0 0 0 0 0 0 0 0 0 0 0 0 0 0 0 0 0 0 0 0 0 0 0 0 0 -0 -0 -0 -0
0 0 0 0 0 0 0 0 0 0 0 -0 -0 -0 -0 -0 0 0 0 0 0 0 0 0 0 0 0 0 0 0 0 0 0 -0 -0 0 -0 0 0 0 0 0 0 -0 -0 -0 -0 0 0 0 -0 -0 -0 -0
0 0 0 0 0 0 0 0 0 0 0 0 0 0 -0 0 -0 0 0 0 0 0 0 0 0 0 0 0 0 0 0 0 0 0 -0 -0 0 0 0 0 -0 -0 -0 -0 -0 -0 -0 -0 -0 -0 -0 -0 -0 -0
0 0 0 0 0 0 0 0 0 0 0 0 0 0 0 0 0 0 0 0 0 0 0 0 0 0 0 0 0 0 0 0 -0 0 0 -0 -0 0 -0 0 -0 0 -0 -0 -0 -0 -0 0 -0 -0 0 -0 -0 -0
0 0 0 0 0 0 0 0 0 0 0 0 0 0 0 0 0 0 0 0 0 0 0 0 0 0 0 0 0 0 0 0 -0 -0 -0 0 0 0 0 -0 0 -0 -0 -0 -0 -0 0 -0 -0 -0 0 0 0 0
0 0 0 0 0 0 0 0 0 0 0 0 0 0 0 0 0 0 0 0 0 0 0 0 0 0 0 0 0 0 0 0 0 0 -0 -0 0 0 0 -0 0 -0 -0 -0 -0 0 0 0 0 0 0 0 0 0
0 0 0 0 0 0 0 0 0 0 0 0 0 0 0 0 0 0 0 0 0 0 0 0 0 0 0 0 0 0 0 0 0 0 0 0 0 0 0 0 0 -0 -0 -0 -0 0 0 -0 -0 -0 0 0 0 0
0 0 0 0 0 0 0 0 0 0 -0 0 0 0 0 0 0 0 0 0 0 0 0 0 0 0 0 0 0 0 0 0 0 0 0 0 0 -0 0 0 0 0 0 -0 -0 -0 -0 0 -0 -0 -0 0 0 0
0 0 0 0 0 0 0 0 0 0 0 0 0 0 0 0 0 0 0 0 0 0 0 0 0 0 0 0 0 0 0 0 0 0 0 0 0 0 0 -0 -0 -0 -0 -0 0 -0 -0 -0 -0 -0 0 0 0 0
0 0 -0 0 0 0 0 0 0 0 0 0 0 0 0 0 0 0 0 0 0 0 0 0 0 0 0 0 0 0 0 0 0 0 0 0 -0 0 0 0 0 -0 -0 -0 0 -0 -0 -0 -0 -0 -0 -0 -0 0
0 -0 0 0 0 0 0 0 0 0 0 0 0 0 0 0 0 0 0 0 0 0 0 0 0 0 0 0 0 0 0 0 0 0 0 0 0 -0 0 0 0 0 0 0 0 0 -0 -0 -0 -0 -0 -0 -0 -0
0 0 0 0 0 0 0 0 0 0 0 0 0 0 0 0 0 0 0 0 0 0 0 0 0 0 0 0 0 0 0 0 0 0 0 0 0 0 0 0 0 0 0 0 0 0 0 -0 0 0 -0 -0 -0 0
-0 -0 0 0 0 0 0 0 0 0 0 0 0 0 0 0 0 0 0 0 0 0 0 0 0 0 0 0 0 0 0 0 0 0 0 0 0 0 0 0 0 0 0 0 0 0 0 0 0 0 0 0 0 0
-0 -0 0 0 0 0 0 0 0 0 0 0 0 0 0 0 0 0 0 0 0 0 0 0 0 0 0 0 0 0 0 0 0 0 0 0 0 0 0 0 0 0 0 0 0 0 0 0 0 0 0 0 0 0
-0 0 0 0 0 0 0 0 0 0 0 0 0 0 0 0 0 0 0 0 0 0 0 0 0 0 0 0 0 0 0 0 0 0 0 0 0 0 0 0 0 0 0 0 0 0 0 0 0 0 0 0 0 0
-0 0 0 0 0 0 0 0 0 0 0 0 0 0 0 0 0 0 0 0 0 0 0 0 0 0 0 0 0 0 0 0 0 0 0 0 0 0 0 0 0 0 0 0 0 0 0 0 0 0 0 0 0 0
0 0 0 0 0 0 0 0 0 0 0 0 0 0 0 0 0 0 0 0 0 0 0 0 0 0 0 0 0 0 0 0 0 0 0 0 0 0 0 0 0 0 0 0 0 0 0 0 0 0 0 0 0 0
0 0 0 0 0 0 0 0 0 0 0 0 0 0 0 0 0 0 0 0 0 0 0 0 0 0 0 0 0 0 0 0 0 0 0 0 0 0 0 0 0 0 0 0 0 0 0 0 0 0 0 0 0 0
0 0 0 0 0 0 0 0 0 0 0 0 0 0 0 0 0 0 0 0 0 0 0 0 0 0 0 0 0 0 0 0 0 0 0 0 0 0 0 0 0 0 0 0 0 0 0 0 0 0 0 0 0 0
0 0 0 0 0 0 0 0 0 0 0 0 0 0 0 0 0 0 0 0 0 0 0 0 0 0 0 0 0 0 0 0 0 0 0 0 0 0 0 0 0 0 0 0 0 0 0 0 0 0 0 0 0 0
0 0 0 0 0 0 0 0 0 0 0 0 0 0 0 0 0 0 0 0 0 0 0 0 0 0 0 0 0 0 0 0 0 0 0 0 0 0 0 0 0 0 0 0 0 0 0 0 0 0 0 0 0 0
0 0 0 0 0 0 0 0 0 0 0 0 0 0 0 0 0 0 0 0 0 0 0 0 0 0 0 0 0 0 0 0 0 0 0 0 0 0 0 0 0 0 0 0 0 0 0 0 0 0 0 0 0 0
0 0 0 0 0 0 0 0 0 0 0 0 0 0 0 0 0 0 0 0 0 0 0 0 0 0 0 0 0 0 0 0 0 0 0 0 0 0 0 0 0 0 0 0 0 0 0 0 0 0 0 0 0 0
0 0 0 0 0 0 0 0 0 0 0 0 0 0 0 0 0 0 0 0 0 0 0 0 0 0 0 0 0 0 0 0 0 0 0 0 0 0 0 0 0 0 0 0 0 0 0 0 0 0 0 0 0 0
0 0 0 0 0 0 0 0 0 0 0 0 0 0 0 0 0 0 0 0 0 0 0 0 0 0 0 0 0 0 0 0 0 0 0 0 0 0 0 0 0 0 0 0 0 0 0 0 0 0 0 0 0 0
0 0 0 0 0 0 0 0 0 0 0 0 0 0 0 0 0 0 0 0 0 0 0 0 0 0 0 0 0 0 0 0 0 0 0 0 0 0 0 0 0 0 0 0 0 0 0 0 0 0 0 0 0 0
0 0 0 0 0 0 0 0 0 0 0 0 0 0 0 0 0 0 0 0 0 0 0 0 0 0 0 0 0 0 0 0 0 0 0 0 0 0 0 0 0 0 0 0 0 0 0 0 0 0 0 0 0 0
0 0 0 0 0 0 0 0 0 0 0 0 0 0 0 0 0 0 0 0 0 0 0 0 0 0 0 0 0 0 0 0 0 0 0 0 0 0 0 0 0 0 0 0 0 0 0 0 0 0 0 0 0 0
0 0 0 0 0 0 0 0 0 0 0 0 0 0 0 0 0 0 0 0 0 0 0 0 0 0 0 0 0 0 0 0 0 0 0 0 0 0 0 0 0 0 0 0 0 0 0 0 0 0 0 0 0 0
0 0 0 0 0 0 0 0 0 0 0 0 0 0 0 0 0 0 0 0 0 0 0 0 0 0 0 0 0 0 0 0 0 0 0 0 0 0 0 0 0 0 0 0 0 0 0 0 0 0 0 0 0 0
0 0 0 0 0 0 0 0 0 0 0 0 0 0 0 0 0 0 0 0 0 0 0 0 0 0 0 0 0 0 0 0 0 0 0 0 0 0 0 0 0 0 0 0 0 0 0 0 0 0 0 0 0 0
Wind_Speed_500mb
85 64 74 74 75 69 73 70 75 68 75 72 73 64 58 52 44 39 30 23 15 5 15 8 8 4 1 2 3 12 8 10 12 9 7 2 4 5 4 6 10 8 10 7 6 10 10 50 23 15 3 9 22 29
88 68 69 75 74 73 67 71 77 64 82 81 75 70 62 54 51 44 33 26 19 7 9 9 8 5 4 5 2 12 6 3 7 7 4 5 5 5 2 6 8 6 4 4 6 3 5 14 7 9 7 8 16 14
78 76 67 76 70 66 65 67 73 72 80 81 72 75 68 64 57 51 34 26 21 11 6 8 5 9 7 6 1 2 2 2 4 4 5 2 5 3 4 4 6 6 3 4 3 2 3 4 4 5 5 9 11 16
61 82 59 74 70 61 65 63 81 80 86 82 78 82 75 69 61 54 35 26 23 8 7 4 9 11 11 9 5 6 12 10 7 6 6 1 5 2 3 4 3 6 6 7 4 8 5 2 6 7 10 15 19 24
55 88 62 62 65 66 60 63 70 79 83 89 89 87 79 70 60 51 32 25 27 11 8 7 7 9 17 13 8 9 8 6 2 2 2 1 2 2 5 1 6 15 10 7 8 19 7 11 18 16 18 19 20 25
63 86 67 58 64 69 57 58 63 63 73 92 91 88 80 69 57 44 17 33 32 26 4 4 5 3 6 14 11 9 10 5 3 1 2 2 2 2 3 5 9 26 24 17 16 26 16 26 23 21 24 26 27 30
63 93 71 66 65 71 61 62 70 79 85 99 93 89 76 63 60 32 11 8 44 29 6 9 2 5 15 15 11 10 9 4 4 2 4 3 3 4 4 7 17 38 31 29 30 38 28 32 20 26 26 30 29 31
51 79 84 52 59 69 67 68 77 90 99 100 93 80 71 66 59 33 2 14 41 24 8 7 1 5 20 11 8 9 7 5 5 4 3 3 3 5 10 33 25 45 46 41 45 26 28 32 34 33 33 34 35 35
56 57 92 55 69 62 67 56 84 99 110 103 92 83 69 59 35 33 11 23 39 9 7 11 10 7 23 11 9 10 8 4 5 6 6 5 3 11 23 37 60 75 57 56 51 34 27 38 40 38 40 41 37 39
59 56 83 61 61 56 62 64 107 125 117 98 92 41 17 30 34 35 15 13 17 12 13 11 16 6 18 13 9 11 5 3 4 6 7 4 8 57 39 30 65 76 53 56 61 48 45 50 50 46 39 33 30 31
53 56 77 64 71 53 63 99 132 123 119 100 31 12 48 60 24 13 8 8 9 7 16 14 15 13 22 9 9 10 6 3 2 6 7 5 8 18 43 50 57 70 69 53 61 50 51 51 55 52 49 44 40 37
56 62 82 58 81 62 99 128 134 124 90 63 41 66 52 14 9 8 5 1 6 11 20 24 15 14 17 11 11 10 6 4 7 9 6 8 10 22 35 62 63 72 74 57 57 47 44 46 49 48 46 46 44 42
52 64 74 64 59 80 112 125 137 113 97 82 24 19 17 9 6 18 16 8 5 26 31 26 14 15 14 9 15 7 7 9 9 4 8 11 8 22 45 62 64 69 70 63 61 56 52 50 52 52 50 47 47 47
58 65 83 34 89 96 102 148 126 124 101 16 16 13 13 10 12 11 11 9 18 22 60 51 22 10 11 7 9 10 5 4 4 3 13 7 26 35 50 64 65 75 73 68 63 60 57 57 57 55 51 50 52 51
63 66 74 22 120 114 142 148 124 97 21 15 16 13 15 9 8 21 20 25 21 62 76 31 19 9 4 8 3 8 7 8 13 11 7 10 20 42 53 67 68 70 71 69 67 64 59 57 57 56 56 53 50 47
60 63 53 91 129 142 150 123 89 46 15 17 15 10 11 11 6 21 28 24 55 83 40 10 10 8 2 10 7 16 15 14 9 9 14 11 23 40 45 60 67 66 65 63 62 61 57 58 57 56 55 54 52 49
57 67 48 128 138 144 134 116 48 12 11 9 4 11 17 8 22 24 31 37 80 58 6 11 10 12 12 5 5 10 12 8 8 13 10 16 17 26 37 50 63 64 64 61 60 62 59 57 57 59 59 56 53 50
63 59 83 139 143 119 81 37 12 9 7 6 6 19 11 13 33 31 26 63 56 24 19 8 20 6 12 12 8 10 34 21 11 11 15 17 19 27 36 46 57 58 57 57 58 60 62 62 62 60 55 53 55 56
88 70 135 148 143 86 16 10 8 11 7 9 21 26 14 17 20 33 35 80 28 23 10 14 5 8 8 18 18 8 13 15 19 19 21 19 20 26 34 43 52 56 55 57 60 64 64 62 60 57 56 58 58 57
47 112 144 138 108 25 11 10 11 14 11 14 18 20 15 15 25 24 51 56 25 12 7 6 10 11 10 8 8 5 6 11 18 21 22 22 25 30 36 44 51 54 55 56 60 61 63 65 64 61 59 58 57 56
119 134 119 98 53 17 14 11 11 12 19 14 32 11 13 23 20 21 27 42 15 9 11 22 21 12 13 11 6 5 8 8 12 16 13 17 27 32 38 45 51 55 59 63 66 66 69 68 61 62 61 57 53 49
99 121 93 48 14 13 15 14 17 19 11 21 16 8 11 8 12 14 27 17 13 34 22 13 21 26 23 17 16 15 13 16 20 21 21 23 25 34 43 49 56 62 65 66 66 66 66 65 62 61 58 54 51 50
106 87 51 15 14 13 12 10 7 6 9 14 11 9 3 7 10 27 10 15 23 30 35 40 40 38 36 34 34 33 30 31 28 27 27 29 29 29 35 45 52 59 63 65 64 64 64 59 62 61 58 56 55 56
84 20 10 10 11 9 13 6 9 14 13 4 5 7 4 7 19 3 6 11 14 18 33 45 46 48 48 46 43 38 33 35 36 37 37 38 37 36 35 39 45 53 56 57 60 63 62 63 63 64 62 60 59 57
16 7 10 9 11 11 9 5 3 6 6 5 7 6 6 12 5 7 7 5 5 12 17 21 25 32 38 39 36 34 37 39 42 41 40 39 40 42 41 41 44 47 53 57 62 63 63 65 65 64 62 61 60 57
12 5 5 11 10 10 12 11 11 11 9 7 5 13 12 6 7 11 3 2 2 1 4 6 9 12 18 25 29 31 34 36 40 42 40 41 40 40 41 42 44 48 51 55 57 59 64 66 67 65 63 60 56 53
11 7 5 9 14 18 11 13 12 9 8 11 11 12 9 11 14 3 3 4 1 6 10 10 9 10 13 16 19 21 21 26 30 32 33 34 36 39 42 42 41 36 38 44 54 58 58 61 62 61 59 56 53 53
8 11 13 19 9 4 10 7 8 11 8 19 24 9 13 7 3 3 4 6 6 6 8 8 8 8 10 12 13 14 15 17 21 23 25 27 28 30 33 39 40 38 37 37 38 47 51 52 52 53 52 52 53 54
12 13 12 9 9 11 9 2 5 8 15 27 7 6 8 9 7 4 1 5 7 9 12 12 12 12 13 14 13 13 13 13 15 16 16 16 15 18 23 27 32 32 30 30 31 37 40 41 43 45 47 49 48 46
6 5 8 7 5 4 5 6 7 15 15 16 16 20 18 17 23 18 13 10 9 10 11 13 13 14 13 12 12 12 11 11 10 12 12 12 14 14 13 14 18 21 24 26 31 40 46 47 51 53 51 49 49 51
10 6 9 11 8 5 13 23 25 23 12 17 27 23 22 17 18 30 33 24 20 17 15 12 13 14 15 15 14 12 10 10 10 9 8 9 10 11 13 13 16 19 22 27 36 45 50 52 50 48 48 49 51 51
8 10 8 6 6 14 13 6 7 9 9 9 11 12 12 10 10 13 31 29 21 16 16 15 14 12 13 13 13 13 13 16 15 12 11 10 11 10 11 14 17 20 24 31 37 38 38 40 43 45 47 50 51 49
8 10 11 11 7 3 6 7 9 9 15 11 13 11 11 9 9 22 29 34 29 27 25 21 17 14 12 10 9 9 9 11 11 8 11 11 10 9 10 14 19 21 23 24 29 32 34 36 40 46 50 52 51 50
Wind_Direction_500mb
213 217 217 217 221 222 220 218 226 219 211 199 199 196 201 201 204 208 212 209 205 181 168 193 186 180 220 319 123 329 346 357 13 60 88 14 83 273 3 266 331 348 348 339 354 58 38 358 356 58 269 6 9 25
214 213 215 218 215 217 218 215 223 212 210 207 203 198 200 201 201 206 204 203 206 201 147 180 187 199 209 239 348 25 110 4 25 80 23 78 6 16 182 342 338 37 23 358 47 131 23 22 65 52 54 52 19 40
216 211 211 219 217 212 217 215 220 217 210 209 206 194 200 201 201 207 203 205 192 209 138 182 192 206 191 207 102 135 95 103 75 94 108 144 87 118 21 316 309 320 326 93 109 224 88 137 60 71 121 116 113 107
220 208 206 214 218 210 217 218 223 216 208 206 206 196 199 199 200 204 198 204 198 177 135 164 190 177 186 189 150 115 123 107 110 91 76 84 131 193 243 225 263 227 356 129 71 102 141 185 170 142 124 117 116 118
222 209 202 198 211 208 211 223 223 215 208 206 202 194 193 197 197 190 199 207 210 218 148 143 167 223 189 190 150 141 131 138 143 123 127 178 333 321 241 317 246 186 183 167 210 178 163 165 164 152 147 140 132 129
221 208 202 194 206 211 212 214 217 213 214 207 197 188 192 192 191 169 203 222 216 211 192 97 201 40 167 159 154 161 146 161 198 228 245 223 235 189 260 246 224 185 184 183 168 165 166 154 154 157 162 151 145 140
219 207 202 196 200 207 209 211 209 220 212 201 189 185 188 182 171 175 203 215 197 187 203 102 134 133 145 148 157 168 157 176 208 231 254 255 183 200 241 234 196 187 186 174 162 155 147 164 173 165 166 154 150 143
222 212 203 193 193 202 207 207 218 210 201 192 180 181 175 176 174 188 196 180 171 175 182 124 190 181 171 160 161 171 149 175 226 245 240 241 245 221 248 236 185 173 169 169 170 179 179 171 166 168 168 161 157 155
226 218 207 190 196 201 207 214 210 197 183 176 176 170 166 174 178 180 163 155 170 185 203 171 156 204 162 155 155 151 165 193 236 229 202 175 265 226 225 204 191 182 178 177 180 184 181 181 176 174 172 168 170 165
227 212 207 198 184 199 202 210 192 181 182 170 162 145 167 161 154 152 145 174 207 222 220 187 138 156 158 160 162 123 147 206 238 245 161 141 256 251 241 219 203 190 184 181 174 183 188 190 191 186 183 180 180 179
223 212 205 195 192 201 205 194 180 180 169 155 156 111 140 138 120 142 176 192 191 253 204 163 171 142 181 140 166 192 165 172 58 249 141 292 274 241 218 204 194 199 197 196 201 201 197 195 189 189 185 185 184 188
219 213 205 190 192 201 192 184 183 166 164 163 147 128 130 137 122 131 191 302 202 223 170 152 150 135 147 152 116 153 139 55 237 144 71 269 250 231 195 188 188 192 197 198 200 202 200 198 199 196 192 191 188 187
220 213 211 182 188 204 193 188 174 170 156 129 117 148 157 154 144 177 189 240 240 172 170 155 144 148 135 151 91 106 102 210 140 52 233 233 248 198 184 182 186 190 195 197 199 199 197 197 196 200 198 197 196 194
212 221 206 196 185 197 185 178 172 169 155 125 145 137 192 190 225 186 187 180 171 164 156 148 122 138 132 103 138 110 235 94 37 303 237 246 226 195 186 188 191 191 195 199 201 199 199 199 201 199 201 204 201 199
207 220 203 189 186 182 183 182 176 163 144 146 145 191 200 184 152 166 161 138 143 154 151 124 99 131 76 99 71 107 50 246 207 232 237 256 197 190 186 192 195 197 198 200 202 201 201 201 202 202 200 201 202 201
207 211 199 182 179 179 178 166 159 162 124 152 174 124 111 135 158 157 161 148 153 156 156 144 118 87 186 135 116 210 143 221 244 220 250 229 198 196 199 197 196 198 204 205 205 205 206 206 206 207 203 199 201 204
209 204 194 175 175 173 170 163 151 128 150 159 162 133 160 143 167 163 172 168 161 164 182 134 113 185 115 65 249 194 208 219 235 236 222 198 200 207 204 203 199 197 199 204 209 208 210 210 209 207 208 206 204 205
205 192 176 174 167 155 156 166 120 124 106 103 137 142 159 126 144 158 168 168 164 194 172 184 131 139 183 177 242 232 231 235 245 224 206 200 209 202 202 206 203 203 204 205 207 207 210 210 211 211 209 210 207 205
192 178 172 169 163 153 127 129 139 108 88 102 128 133 118 132 146 162 170 168 169 173 160 153 106 195 216 217 221 226 234 233 223 217 207 216 219 211 203 201 205 208 208 209 208 209 211 212 215 213 212 212 213 213
178 171 172 165 163 142 102 95 115 107 144 151 132 114 119 124 138 150 165 171 164 172 212 201 216 224 211 220 204 231 257 232 212 205 217 224 223 216 210 207 207 208 210 210 210 212 211 211 211 211 213 215 215 217
162 152 154 156 149 101 103 127 93 95 123 100 130 116 107 119 119 146 163 177 195 230 242 231 235 240 224 216 213 242 235 231 220 228 245 246 229 221 216 212 210 213 216 215 214 213 214 216 215 213 213 213 213 215
147 155 145 132 98 86 76 64 110 118 89 118 117 119 107 94 112 135 160 192 232 239 233 239 239 253 249 241 248 250 247 238 237 243 250 256 243 231 227 224 219 218 219 221 222 221 220 217 215 216 216 214 211 210
147 146 145 123 86 70 113 94 117 113 117 158 140 105 101 118 136 146 196 227 239 245 241 243 247 253 255 249 252 253 254 256 255 257 260 259 255 251 244 239 234 231 228 226 223 223 222 220 217 215 216 213 212 212
146 124 109 94 95 126 147 87 96 107 112 138 147 116 109 109 152 174 254 244 234 230 229 233 239 246 252 256 260 263 261 261 263 261 260 257 255 253 253 247 243 241 238 237 231 226 220 217 216 215 214 213 215 215
115 59 102 70 112 108 93 106 98 87 119 185 107 120 174 154 172 209 234 251 243 238 243 248 246 251 261 267 269 266 264 263 264 263 260 259 256 253 248 243 242 239 237 233 229 225 222 218 216 215 216 215 216 215
77 29 107 158 153 140 175 140 167 151 131 134 91 124 148 173 175 238 180 246 230 315 302 273 255 249 264 274 280 273 265 261 258 258 259 256 253 252 256 257 253 247 243 234 229 229 224 220 218 216 215 215 215 213
128 225 154 102 113 125 90 86 122 108 134 150 158 163 175 190 217 137 150 28 50 324 327 327 321 307 295 290 286 281 276 263 260 262 259 258 252 246 245 249 252 255 253 245 236 229 228 226 221 218 217 215 213 212
103 144 143 156 127 117 121 104 136 179 144 142 138 183 189 205 160 64 67 6 355 355 351 351 350 337 323 319 315 309 303 285 269 266 269 268 266 258 252 248 248 248 243 238 230 226 224 222 223 223 219 215 212 207
46 91 99 60 68 64 49 89 128 125 147 163 161 129 122 91 81 96 41 8 12 2 357 351 349 339 334 332 327 318 307 299 296 286 276 280 285 288 275 261 254 249 244 237 223 211 213 214 212 213 214 212 207 203
123 130 100 96 95 78 7 67 110 135 146 151 129 115 102 103 67 60 45 24 5 354 350 346 343 340 334 331 327 322 314 306 301 294 306 305 291 283 281 264 248 239 232 222 209 196 190 193 198 200 200 198 194 191
102 121 94 71 93 105 120 116 117 119 120 79 75 92 108 127 89 56 36 29 20 5 345 328 327 332 333 327 326 326 330 321 294 277 281 281 285 280 255 238 220 213 209 204 198 198 199 196 195 193 190 189 186 185
49 58 101 105 115 140 128 122 91 76 74 74 72 81 99 92 69 45 18 21 17 1 352 346 337 333 334 333 332 328 322 330 318 280 264 277 275 260 239 216 207 203 199 198 199 201 198 195 189 186 183 179 177 174
79 71 81 103 110 106 103 99 68 82 57 63 54 62 64 75 92 26 12 6 7 7 6 2 353 344 336 330 326 324 322 323 327 301 282 291 289 264 224 208 205 203 200 194 190 188 187 184 180 175 172 170 168 167
Wind_Speed_850mb
85 64 74 74 75 69 73 70 75 68 75 72 73 64 58 52 44 39 30 23 15 5 15 8 8 4 1 2 3 12 8 10 12 9 7 2 4 5 4 6 10 8 10 7 6 10 10 50 23 15 3 9 22 29
88 68 69 75 74 73 67 71 77 64 82 81 75 70 62 54 51 44 33 26 19 7 9 9 8 5 4 5 2 12 6 3 7 7 4 5 5 5 2 6 8 6 4 4 6 3 5 14 7 9 7 8 16 14
78 76 67 76 70 66 65 67 73 72 80 81 72 75 68 64 57 51 34 26 21 11 6 8 5 9 7 6 1 2 2 2 4 4 5 2 5 3 4 4 6 6 3 4 3 2 3 4 4 5 5 9 11 16
61 82 59 74 70 61 65 63 81 80 86 82 78 82 75 69 61 54 35 26 23 8 7 4 9 11 11 9 5 6 12 10 7 6 6 1 5 2 3 4 3 6 6 7 4 8 5 2 6 7 10 15 19 24
55 88 62 62 65 66 60 63 70 79 83 89 89 87 79 70 60 51 32 25 27 11 8 7 7 9 17 13 8 9 8 6 2 2 2 1 2 2 5 1 6 15 10 7 8 19 7 11 18 16 18 19 20 25
63 86 67 58 64 69 57 58 63 63 73 92 91 88 80 69 57 44 17 33 32 26 4 4 5 3 6 14 11 9 10 5 3 1 2 2 2 2 3 5 9 26 24 17 16 26 16 26 23 21 24 26 27 30
63 93 71 66 65 71 61 62 70 79 85 99 93 89 76 63 60 32 11 8 44 29 6 9 2 5 15 15 11 10 9 4 4 2 4 3 3 4 4 7 17 38 31 29 30 38 28 32 20 26 26 30 29 31
51 79 84 52 59 69 67 68 77 90 99 100 93 80 71 66 59 33 2 14 41 24 8 7 1 5 20 11 8 9 7 5 5 4 3 3 3 5 10 33 25 45 46 41 45 26 28 32 34 33 33 34 35 35
56 57 92 55 69 62 67 56 84 99 110 103 92 83 69 59 35 33 11 23 39 9 7 11 10 7 23 11 9 10 8 4 5 6 6 5 3 11 23 37 60 75 57 56 51 34 27 38 40 38 40 41 37 39
59 56 83 61 61 56 62 64 107 125 117 98 92 41 17 30 34 35 15 13 17 12 13 11 16 6 18 13 9 11 5 3 4 6 7 4 8 57 39 30 65 76 53 56 61 48 45 50 50 46 39 33 30 31
53 56 77 64 71 53 63 99 132 123 119 100 31 12 48 60 24 13 8 8 9 7 16 14 15 13 22 9 9 10 6 3 2 6 7 5 8 18 43 50 57 70 69 53 61 50 51 51 55 52 49 44 40 37
56 62 82 58 81 62 99 128 134 124 90 63 41 66 52 14 9 8 5 1 6 11 20 24 15 14 17 11 11 10 6 4 7 9 6 8 10 22 35 62 63 72 74 57 57 47 44 46 49 48 46 46 44 42
52 64 74 64 59 80 112 125 137 113 97 82 24 19 17 9 6 18 16 8 5 26 31 26 14 15 14 9 15 7 7 9 9 4 8 11 8 22 45 62 64 69 70 63 61 56 52 50 52 52 50 47 47 47
58 65 83 34 89 96 102 148 126 124 101 16 16 13 13 10 12 11 11 9 18 22 60 51 22 10 11 7 9 10 5 4 4 3 13 7 26 35 50 64 65 75 73 68 63 60 57 57 57 55 51 50 52 51
63 66 74 22 120 114 142 148 124 97 21 15 16 13 15 9 8 21 20 25 21 62 76 31 19 9 4 8 3 8 7 8 13 11 7 10 20 42 53 67 68 70 71 69 67 64 59 57 57 56 56 53 50 47
60 63 53 91 129 142 150 123 89 46 15 17 15 10 11 11 6 21 28 24 55 83 40 10 10 8 2 10 7 16 15 14 9 9 14 11 23 40 45 60 67 66 65 63 62 61 57 58 57 56 55 54 52 49
57 67 48 128 138 144 134 116 48 12 11 9 4 11 17 8 22 24 31 37 80 58 6 11 10 12 12 5 5 10 12 8 8 13 10 16 17 26 37 50 63 64 64 61 60 62 59 57 57 59 59 56 53 50
63 59 83 139 143 119 81 37 12 9 7 6 6 19 11 13 33 31 26 63 56 24 19 8 20 6 12 12 8 10 34 21 11 11 15 17 19 27 36 46 57 58 57 57 58 60 62 62 62 60 55 53 55 56
88 70 135 148 143 86 16 10 8 11 7 9 21 26 14 17 20 33 35 80 28 23 10 14 5 8 8 18 18 8 13 15 19 19 21 19 20 26 34 43 52 56 55 57 60 64 64 62 60 57 56 58 58 57
47 112 144 138 108 25 11 10 11 14 11 14 18 20 15 15 25 24 51 56 25 12 7 6 10 11 10 8 8 5 6 11 18 21 22 22 25 30 36 44 51 54 55 56 60 61 63 65 64 61 59 58 57 56
119 134 119 98 53 17 14 11 11 12 19 14 32 11 13 23 20 21 27 42 15 9 11 22 21 12 13 11 6 5 8 8 12 16 13 17 27 32 38 45 51 55 59 63 66 66 69 68 61 62 61 57 53 49
99 121 93 48 14 13 15 14 17 19 11 21 16 8 11 8 12 14 27 17 13 34 22 13 21 26 23 17 16 15 13 16 20 21 21 23 25 34 43 49 56 62 65 66 66 66 66 65 62 61 58 54 51 50
106 87 51 15 14 13 12 10 7 6 9 14 11 9 3 7 10 27 10 15 23 30 35 40 40 38 36 34 34 33 30 31 28 27 27 29 29 29 35 45 52 59 63 65 64 64 64 59 62 61 58 56 55 56
84 20 10 10 11 9 13 6 9 14 13 4 5 7 4 7 19 3 6 11 14 18 33 45 46 48 48 46 43 38 33 35 36 37 37 38 37 36 35 39 45 53 56 57 60 63 62 63 63 64 62 60 59 57
16 7 10 9 11 11 9 5 3 6 6 5 7 6 6 12 5 7 7 5 5 12 17 21 25 32 38 39 36 34 37 39 42 41 40 39 40 42 41 41 44 47 53 57 62 63 63 65 65 64 62 61 60 57
12 5 5 11 10 10 12 11 11 11 9 7 5 13 12 6 7 11 3 2 2 1 4 6 9 12 18 25 29 31 34 36 40 42 40 41 40 40 41 42 44 48 51 55 57 59 64 66 67 65 63 60 56 53
11 7 5 9 14 18 11 13 12 9 8 11 11 12 9 11 14 3 3 4 1 6 10 10 9 10 13 16 19 21 21 26 30 32 33 34 36 39 42 42 41 36 38 44 54 58 58 61 62 61 59 56 53 53
8 11 13 19 9 4 10 7 8 11 8 19 24 9 13 7 3 3 4 6 6 6 8 8 8 8 10 12 13 14 15 17 21 23 25 27 28 30 33 39 40 38 37 37 38 47 51 52 52 53 52 52 53 54
12 13 12 9 9 11 9 2 5 8 15 27 7 6 8 9 7 4 1 5 7 9 12 12 12 12 13 14 13 13 13 13 15 16 16 16 15 18 23 27 32 32 30 30 31 37 40 41 43 45 47 49 48 46
6 5 8 7 5 4 5 6 7 15 15 16 16 20 18 17 23 18 13 10 9 10 11 13 13 14 13 12 12 12 11 11 10 12 12 12 14 14 13 14 18 21 24 26 31 40 46 47 51 53 51 49 49 51
10 6 9 11 8 5 13 23 25 23 12 17 27 23 22 17 18 30 33 24 20 17 15 12 13 14 15 15 14 12 10 10 10 9 8 9 10 11 13 13 16 19 22 27 36 45 50 52 50 48 48 49 51 51
8 10 8 6 6 14 13 6 7 9 9 9 11 12 12 10 10 13 31 29 21 16 16 15 14 12 13 13 13 13 13 16 15 12 11 10 11 10 11 14 17 20 24 31 37 38 38 40 43 45 47 50 51 49
8 10 11 11 7 3 6 7 9 9 15 11 13 11 11 9 9 22 29 34 29 27 25 21 17 14 12 10 9 9 9 11 11 8 11 11 10 9 10 14 19 21 23 24 29 32 34 36 40 46 50 52 51 50
Wind_Direction_850mb
213 217 217 217 221 222 220 218 226 219 211 199 199 196 201 201 204 208 212 209 205 181 168 193 186 180 220 319 123 329 346 357 13 60 88 14 83 273 3 266 331 348 348 339 354 58 38 358 356 58 269 6 9 25
214 213 215 218 215 217 218 215 223 212 210 207 203 198 200 201 201 206 204 203 206 201 147 180 187 199 209 239 348 25 110 4 25 80 23 78 6 16 182 342 338 37 23 358 47 131 23 22 65 52 54 52 19 40
216 211 211 219 217 212 217 215 220 217 210 209 206 194 200 201 201 207 203 205 192 209 138 182 192 206 191 207 102 135 95 103 75 94 108 144 87 118 21 316 309 320 326 93 109 224 88 137 60 71 121 116 113 107
220 208 206 214 218 210 217 218 223 216 208 206 206 196 199 199 200 204 198 204 198 177 135 164 190 177 186 189 150 115 123 107 110 91 76 84 131 193 243 225 263 227 356 129 71 102 141 185 170 142 124 117 116 118
222 209 202 198 211 208 211 223 223 215 208 206 202 194 193 197 197 190 199 207 210 218 148 143 167 223 189 190 150 141 131 138 143 123 127 178 333 321 241 317 246 186 183 167 210 178 163 165 164 152 147 140 132 129
221 208 202 194 206 211 212 214 217 213 214 207 197 188 192 192 191 169 203 222 216 211 192 97 201 40 167 159 154 161 146 161 198 228 245 223 235 189 260 246 224 185 184 183 168 165 166 154 154 157 162 151 145 140
219 207 202 196 200 207 209 211 209 220 212 201 189 185 188 182 171 175 203 215 197 187 203 102 134 133 145 148 157 168 157 176 208 231 254 255 183 200 241 234 196 187 186 174 162 155 147 164 173 165 166 154 150 143
222 212 203 193 193 202 207 207 218 210 201 192 180 181 175 176 174 188 196 180 171 175 182 124 190 181 171 160 161 171 149 175 226 245 240 241 245 221 248 236 185 173 169 169 170 179 179 171 166 168 168 161 157 155
226 218 207 190 196 201 207 214 210 197 183 176 176 170 166 174 178 180 163 155 170 185 203 171 156 204 162 155 155 151 165 193 236 229 202 175 265 226 225 204 191 182 178 177 180 184 181 181 176 174 172 168 170 165
227 212 207 198 184 199 202 210 192 181 182 170 162 145 167 161 154 152 145 174 207 222 220 187 138 156 158 160 162 123 147 206 238 245 161 141 256 251 241 219 203 190 184 181 174 183 188 190 191 186 183 180 180 179
223 212 205 195 192 201 205 194 180 180 169 155 156 111 140 138 120 142 176 192 191 253 204 163 171 142 181 140 166 192 165 172 58 249 141 292 274 241 218 204 194 199 197 196 201 201 197 195 189 189 185 185 184 188
219 213 205 190 192 201 192 184 183 166 164 163 147 128 130 137 122 131 191 302 202 223 170 152 150 135 147 152 116 153 139 55 237 144 71 269 250 231 195 188 188 192 197 198 200 202 200 198 199 196 192 191 188 187
220 213 211 182 188 204 193 188 174 170 156 129 117 148 157 154 144 177 189 240 240 172 170 155 144 148 135 151 91 106 102 210 140 52 233 233 248 198 184 182 186 190 195 197 199 199 197 197 196 200 198 197 196 194
212 221 206 196 185 197 185 178 172 169 155 125 145 137 192 190 225 186 187 180 171 164 156 148 122 138 132 103 138 110 235 94 37 303 237 246 226 195 186 188 191 191 195 199 201 199 199 199 201 199 201 204 201 199
207 220 203 189 186 182 183 182 176 163 144 146 145 191 200 184 152 166 161 138 143 154 151 124 99 131 76 99 71 107 50 246 207 232 237 256 197 190 186 192 195 197 198 200 202 201 201 201 202 202 200 201 202 201
207 211 199 182 179 179 178 166 159 162 124 152 174 124 111 135 158 157 161 148 153 156 156 144 118 87 186 135 116 210 143 221 244 220 250 229 198 196 199 197 196 198 204 205 205 205 206 206 206 207 203 199 201 204
209 204 194 175 175 173 170 163 151 128 150 159 162 133 160 143 167 163 172 168 161 164 182 134 113 185 115 65 249 194 208 219 235 236 222 198 200 207 204 203 199 197 199 204 209 208 210 210 209 207 208 206 204 205
205 192 176 174 167 155 156 166 120 124 106 103 137 142 159 126 144 158 168 168 164 194 172 184 131 139 183 177 242 232 231 235 245 224 206 200 209 202 202 206 203 203 204 205 207 207 210 210 211 211 209 210 207 205
192 178 172 169 163 153 127 129 139 108 88 102 128 133 118 132 146 162 170 168 169 173 160 153 106 195 216 217 221 226 234 233 223 217 207 216 219 211 203 201 205 208 208 209 208 209 211 212 215 213 212 212 213 213
178 171 172 165 163 142 102 95 115 107 144 151 132 114 119 124 138 150 165 171 164 172 212 201 216 224 211 220 204 231 257 232 212 205 217 224 223 216 210 207 207 208 210 210 210 212 211 211 211 211 213 215 215 217
162 152 154 156 149 101 103 127 93 95 123 100 130 116 107 119 119 146 163 177 195 230 242 231 235 240 224 216 213 242 235 231 220 228 245 246 229 221 216 212 210 213 216 215 214 213 214 216 215 213 213 213 213 215
147 155 145 132 98 86 76 64 110 118 89 118 117 119 107 94 112 135 160 192 232 239 233 239 239 253 249 241 248 250 247 238 237 243 250 256 243 231 227 224 219 218 219 221 222 221 220 217 215 216 216 214 211 210
147 146 145 123 86 70 113 94 117 113 117 158 140 105 101 118 136 146 196 227 239 245 241 243 247 253 255 249 252 253 254 256 255 257 260 259 255 251 244 239 234 231 228 226 223 223 222 220 217 215 216 213 212 212
146 124 109 94 95 126 147 87 96 107 112 138 147 116 109 109 152 174 254 244 234 230 229 233 239 246 252 256 260 263 261 261 263 261 260 257 255 253 253 247 243 241 238 237 231 226 220 217 216 215 214 213 215 215
115 59 102 70 112 108 93 106 98 87 119 185 107 120 174 154 172 209 234 251 243 238 243 248 246 251 261 267 269 266 264 263 264 263 260 259 256 253 248 243 242 239 237 233 229 225 222 218 216 215 216 215 216 215
77 29 107 158 153 140 175 140 167 151 131 134 91 124 148 173 175 238 180 246 230 315 302 273 255 249 264 274 280 273 265 261 258 258 259 256 253 252 256 257 253 247 243 234 229 229 224 220 218 216 215 215 215 213
128 225 154 102 113 125 90 86 122 108 134 150 158 163 175 190 217 137 150 28 50 324 327 327 321 307 295 290 286 281 276 263 260 262 259 258 252 246 245 249 252 255 253 245 236 229 228 226 221 218 217 215 213 212
103 144 143 156 127 117 121 104 136 179 144 142 138 183 189 205 160 64 67 6 355 355 351 351 350 337 323 319 315 309 303 285 269 266 269 268 266 258 252 248 248 248 243 238 230 226 224 222 223 223 219 215 212 207
46 91 99 60 68 64 49 89 128 125 147 163 161 129 122 91 81 96 41 8 12 2 357 351 349 339 334 332 327 318 307 299 296 286 276 280 285 288 275 261 254 249 244 237 223 211 213 214 212 213 214 212 207 203
123 130 100 96 95 78 7 67 110 135 146 151 129 115 102 103 67 60 45 24 5 354 350 346 343 340 334 331 327 322 314 306 301 294 306 305 291 283 281 264 248 239 232 222 209 196 190 193 198 200 200 198 194 191
102 121 94 71 93 105 120 116 117 119 120 79 75 92 108 127 89 56 36 29 20 5 345 328 327 332 333 327 326 326 330 321 294 277 281 281 285 280 255 238 220 213 209 204 198 198 199 196 195 193 190 189 186 185
49 58 101 105 115 140 128 122 91 76 74 74 72 81 99 92 69 45 18 21 17 1 352 346 337 333 334 333 332 328 322 330 318 280 264 277 275 260 239 216 207 203 199 198 199 201 198 195 189 186 183 179 177 174
79 71 81 103 110 106 103 99 68 82 57 63 54 62 64 75 92 26 12 6 7 7 6 2 353 344 336 330 326 324 322 323 327 301 282 291 289 264 224 208 205 203 200 194 190 188 187 184 180 175 172 170 168 167